KN4MGS Weather Reports


Display with metric or nautical units.
time (UTC)temp
F
wind
direction
speed
MPH
gust
MPH
rain 1hr
in
rain 24hr
in
rain mn
in
humidity
%
barometer
mb
20260504223705 76 205 2.0 2.0 0.00 0.00 0.00 37 1017.2
20260504223200 77 212 2.0 3.0 0.00 0.00 0.00 36 1017.1
20260504222658 78 205 2.0 2.0 0.00 0.00 0.00 35 1017.2
20260504222154 77 276 3.0 3.0 0.00 0.00 0.00 35 1017.1
20260504221652 77 206 4.0 6.0 0.00 0.00 0.00 36 1016.9
20260504221149 78 207 3.0 5.0 0.00 0.00 0.00 36 1017.1
20260504220645 78 228 2.0 3.0 0.00 0.00 0.00 36 1017.0
20260504220143 78 179 0.0 2.0 0.00 0.00 0.00 37 1017.3
20260504215639 78 203 3.0 6.0 0.00 0.00 0.00 35 1017.1
20260504215136 79 189 2.0 2.0 0.00 0.00 0.00 34 1017.1
20260504214632 78 227 3.0 9.0 0.00 0.00 0.00 34 1017.1
20260504214130 79 187 2.0 5.0 0.00 0.00 0.00 33 1017.3
20260504213625 79 38 2.0 8.0 0.00 0.00 0.00 34 1017.2
20260504213122 79 276 5.0 7.0 0.00 0.00 0.00 32 1017.1
20260504212618 80 300 4.0 8.0 0.00 0.00 0.00 31 1017.2
20260504212115 80 299 3.0 6.0 0.00 0.00 0.00 33 1017.1
20260504211613 80 4 1.0 8.0 0.00 0.00 0.00 34 1017.0
20260504211109 81 198 5.0 7.0 0.00 0.00 0.00 32 1017.1
20260504210607 81 297 3.0 6.0 0.00 0.00 0.00 34 1017.3
20260504205601 80 229 3.0 5.0 0.00 0.00 0.00 34 1017.2
20260504205058 80 235 3.0 6.0 0.00 0.00 0.00 32 1017.2
20260504204556 80 288 3.0 6.0 0.00 0.00 0.00 35 1017.5
20260504204055 80 226 3.0 7.0 0.00 0.00 0.00 35 1017.5
20260504203553 80 194 5.0 6.0 0.00 0.00 0.00 34 1017.4
20260504203050 81 204 3.0 3.0 0.00 0.00 0.00 36 1017.6
20260504202545 80 81 2.0 7.0 0.00 0.00 0.00 35 1017.5
20260504202043 80 244 2.0 7.0 0.00 0.00 0.00 33 1017.8
20260504201539 80 196 3.0 6.0 0.00 0.00 0.00 33 1017.7
20260504201038 80 235 3.0 6.0 0.00 0.00 0.00 32 1017.9
20260504200533 80 183 2.0 5.0 0.00 0.00 0.00 33 1017.9
20260504200031 80 199 5.0 6.0 0.00 0.00 0.00 32 1017.9
20260504195526 80 292 5.0 9.0 0.00 0.00 0.00 33 1017.9
20260504195023 80 156 2.0 10.0 0.00 0.00 0.00 36 1018.0
20260504194520 80 237 7.0 8.0 0.00 0.00 0.00 34 1017.9
20260504194015 80 184 2.0 8.0 0.00 0.00 0.00 36 1018.1
20260504193512 82 178 1.0 2.0 0.00 0.00 0.00 33 1017.9
20260504193011 80 176 0.0 2.0 0.00 0.00 0.00 34 1018.1
20260504192509 80 150 0.0 6.0 0.00 0.00 0.00 35 1018.3
20260504192007 80 87 0.0 2.0 0.00 0.00 0.00 32 1018.3
20260504191504 80 335 2.0 5.0 0.00 0.00 0.00 33 1018.5
20260504191000 81 239 3.0 3.0 0.00 0.00 0.00 34 1018.5
20260504190456 80 189 1.0 6.0 0.00 0.00 0.00 34 1018.7
20260504185952 79 213 1.0 7.0 0.00 0.00 0.00 34 1018.5
20260504185449 78 235 5.0 7.0 0.00 0.00 0.00 36 1018.6
20260504184945 78 189 1.0 6.0 0.00 0.00 0.00 36 1018.9
20260504184441 80 214 6.0 8.0 0.00 0.00 0.00 35 1018.7
20260504183937 78 203 1.0 5.0 0.00 0.00 0.00 36 1018.8
20260504183434 79 326 4.0 9.0 0.00 0.00 0.00 35 1018.5
20260504182933 78 225 3.0 5.0 0.00 0.00 0.00 37 1019.0
20260504182429 78 185 3.0 7.0 0.00 0.00 0.00 36 1019.0
20260504181927 79 236 2.0 7.0 0.00 0.00 0.00 37 1019.0
20260504181423 78 139 1.0 5.0 0.00 0.00 0.00 39 1019.1
20260504180922 78 233 2.0 6.0 0.00 0.00 0.00 40 1019.2
20260504180421 79 181 1.0 2.0 0.00 0.00 0.00 36 1019.1
20260504175918 77 265 3.0 3.0 0.00 0.00 0.00 38 1019.0
20260504175415 78 213 4.0 7.0 0.00 0.00 0.00 36 1019.3
20260504174913 77 209 2.0 5.0 0.00 0.00 0.00 38 1019.3
20260504174410 78 327 1.0 5.0 0.00 0.00 0.00 37 1019.5
20260504173908 77 72 2.0 5.0 0.00 0.00 0.00 38 1019.5
20260504173404 77 322 2.0 5.0 0.00 0.00 0.00 35 1019.4
20260504172901 78 130 1.0 2.0 0.00 0.00 0.00 37 1019.6
20260504172357 77 223 1.0 3.0 0.00 0.00 0.00 38 1019.9
20260504171854 75 318 4.0 6.0 0.00 0.00 0.00 37 1019.7
20260504171351 77 253 3.0 5.0 0.00 0.00 0.00 40 1019.9
20260504170848 76 129 0.0 3.0 0.00 0.00 0.00 39 1019.6
20260504170344 78 232 3.0 5.0 0.00 0.00 0.00 40 1019.6
20260504160303 73 323 3.0 5.0 0.00 0.00 0.00 44 1021.5
20260504150728 73 162 2.0 3.0 0.00 0.00 0.00 43 1021.6
20260504150225 72 158 0.0 2.0 0.00 0.00 0.00 46 1021.4
20260504141154 65 162 1.0 3.0 0.00 0.00 0.00 60 1021.6
20260504140651 66 120 0.0 2.0 0.00 0.00 0.00 58 1021.6
20260504140147 66 188 1.0 2.0 0.00 0.00 0.00 61 1021.6
20260504130615 59 143 0.0 1.0 0.00 0.00 0.00 73 1021.7
20260504130112 60 160 0.0 1.0 0.00 0.00 0.00 75 1021.9
20260504110503 39 159 0.0 0.0 0.00 0.00 0.00 99 1021.5
20260504100425 39 158 0.0 0.0 0.00 0.00 0.00 99 1020.9
20260504081818 41 157 0.0 0.0 0.00 0.00 0.00 99 1020.7
20260504081315 40 157 0.0 0.0 0.00 0.00 0.00 99 1020.6
20260504080810 41 150 0.0 0.0 0.00 0.00 0.00 99 1020.4
20260504080308 41 155 0.0 0.0 0.00 0.00 0.00 99 1020.4
20260504070235 43 158 0.0 0.0 0.00 0.00 0.00 99 1020.8
20260504060156 44 157 0.0 0.0 0.00 0.00 0.00 98 1020.7
20260504050624 45 159 0.0 0.0 0.00 0.00 0.00 95 1020.4
20260504050121 45 158 0.0 0.0 0.00 0.00 0.00 95 1020.9
20260504045618 45 159 0.0 0.0 0.00 0.00 0.00 94 1020.7
20260504045112 46 159 0.0 0.0 0.00 0.00 0.00 94 1020.8
20260504044611 46 159 0.0 0.0 0.00 0.00 0.00 94 1020.7
20260504044107 46 159 0.0 0.0 0.00 0.00 0.00 94 1020.8
20260504043604 46 159 0.0 0.0 0.00 0.00 0.00 93 1020.9
20260504043101 46 158 0.0 0.0 0.00 0.00 0.00 93 1020.5
20260504042558 46 160 0.0 0.0 0.00 0.00 0.00 92 1020.9
20260504042055 46 160 0.0 0.0 0.00 0.00 0.00 92 1020.8
20260504041551 47 158 0.0 0.0 0.00 0.00 0.00 92 1020.9
20260504041047 47 165 0.0 0.0 0.00 0.00 0.00 92 1021.2
20260504040545 47 165 0.0 0.0 0.00 0.00 0.00 91 1020.9
20260504040041 47 165 0.0 0.0 0.00 0.00 0.00 91 1020.9
20260504035538 47 165 0.0 0.0 0.00 0.00 0.00 90 1021.0
20260504035035 48 165 0.0 0.0 0.00 0.00 0.00 90 1021.1
20260504034533 48 165 0.0 0.0 0.00 0.00 0.00 90 1020.8
20260504034029 48 166 0.0 0.0 0.00 0.00 0.00 90 1021.1
20260504033528 48 166 0.0 0.0 0.00 0.00 0.00 89 1021.1
20260504033025 48 166 0.0 0.0 0.00 0.00 0.00 88 1021.1
20260504032521 49 166 0.0 0.0 0.00 0.00 0.00 88 1020.9
20260504032018 49 166 0.0 0.0 0.00 0.00 0.00 88 1021.0
20260504031515 48 166 0.0 0.0 0.00 0.00 0.00 88 1021.0
20260504031011 49 166 0.0 0.0 0.00 0.00 0.00 88 1020.9
20260504030509 49 167 0.0 0.0 0.00 0.00 0.00 87 1020.9
20260504030005 49 167 0.0 0.0 0.00 0.00 0.00 87 1020.8
20260504025501 49 167 0.0 0.0 0.00 0.00 0.00 86 1020.8
20260504024958 50 166 0.0 0.0 0.00 0.00 0.00 86 1020.9
20260504024455 50 167 0.0 0.0 0.00 0.00 0.00 86 1021.0
20260504023953 50 167 0.0 0.0 0.00 0.00 0.00 85 1021.1
20260504023449 50 167 0.0 0.0 0.00 0.00 0.00 84 1020.9
20260504022944 50 166 0.0 0.0 0.00 0.00 0.00 84 1020.9
20260504022441 51 167 0.0 0.0 0.00 0.00 0.00 83 1020.7
20260504021938 51 167 0.0 0.0 0.00 0.00 0.00 83 1020.8
20260504021435 51 167 0.0 0.0 0.00 0.00 0.00 82 1020.4
20260504020932 51 167 0.0 0.0 0.00 0.00 0.00 81 1020.4
20260504020429 51 167 0.0 0.0 0.00 0.00 0.00 81 1020.2
20260504015925 52 167 0.0 0.0 0.00 0.00 0.00 80 1020.3
20260504015421 51 167 0.0 0.0 0.00 0.00 0.00 80 1020.4
20260504014917 52 167 0.0 0.0 0.00 0.00 0.00 80 1020.3
20260504014414 52 167 0.0 0.0 0.00 0.00 0.00 80 1020.0
20260504013911 52 167 0.0 0.0 0.00 0.00 0.00 79 1019.7
20260504013409 53 167 0.0 0.0 0.00 0.00 0.00 78 1020.0
20260504012905 53 167 0.0 0.0 0.00 0.00 0.00 78 1019.9
20260504012403 53 167 0.0 0.0 0.00 0.00 0.00 77 1020.0
20260504011900 53 167 0.0 0.0 0.00 0.00 0.00 76 1019.9
20260504011357 54 167 0.0 0.0 0.00 0.00 0.00 75 1020.2
20260504010853 54 167 0.0 0.0 0.00 0.00 0.00 74 1019.6
20260504010349 54 167 0.0 1.0 0.00 0.00 0.00 74 1019.9
20260504005845 55 167 0.0 0.0 0.00 0.00 0.00 73 1020.1
20260504005342 55 166 0.0 0.0 0.00 0.00 0.00 72 1019.5
20260504004840 56 164 0.0 0.0 0.00 0.00 0.00 71 1019.5
20260504004337 57 165 0.0 0.0 0.00 0.00 0.00 70 1019.5
20260504003833 57 165 0.0 0.0 0.00 0.00 0.00 69 1019.5
20260504003330 57 159 0.0 0.0 0.00 0.00 0.00 68 1019.5
20260504002827 58 176 0.0 1.0 0.00 0.00 0.00 67 1019.4
20260504002324 59 177 0.0 1.0 0.00 0.00 0.00 65 1019.5
20260504001822 60 176 0.0 1.0 0.00 0.00 0.00 63 1019.3
20260504001319 60 176 0.0 0.0 0.00 0.00 0.00 62 1019.1
20260504000815 61 176 0.0 1.0 0.00 0.00 0.00 61 1019.1
20260504000312 62 178 1.0 1.0 0.00 0.00 0.00 60 1019.1
20260503235810 63 174 0.0 0.0 0.00 0.00 0.00 58 1019.3
20260503235308 64 198 1.0 1.0 0.00 0.00 0.00 57 1019.1
20260503234805 66 175 0.0 1.0 0.00 0.00 0.00 54 1019.3
20260503234303 67 171 0.0 1.0 0.00 0.00 0.00 49 1019.0
20260503233800 67 174 0.0 2.0 0.00 0.00 0.00 46 1019.1
20260503233255 69 174 0.0 1.0 0.00 0.00 0.00 46 1019.2
20260503232753 69 201 1.0 2.0 0.00 0.00 0.00 40 1019.1
20260503232250 70 204 2.0 2.0 0.00 0.00 0.00 41 1019.1
20260503231748 70 195 1.0 2.0 0.00 0.00 0.00 40 1019.1
20260503231245 70 220 1.0 3.0 0.00 0.00 0.00 39 1019.2
20260503230740 71 207 2.0 2.0 0.00 0.00 0.00 36 1019.2
20260503230238 71 241 1.0 3.0 0.00 0.00 0.00 36 1019.3
20260503225736 71 258 2.0 3.0 0.00 0.00 0.00 37 1019.3
20260503225236 71 222 3.0 3.0 0.00 0.00 0.00 36 1019.1
20260503224733 72 171 2.0 2.0 0.00 0.00 0.00 36 1019.2
20260503224230 72 221 3.0 5.0 0.00 0.00 0.00 35 1019.1